Orbital Elements at Epoch 2459200.5 (2020-Dec-17.0) TDB
Reference: JPL 21 (heliocentric ecliptic J2000)
Element | Value | Uncertainty (1-sigma) | Units |
e | .1635823456481995 | 4.1751e-08 | |
a | 2.574949210181938 | 1.2209e-08 | au |
q | 2.153732978455398 | 1.085e-07 | au |
i | 3.744848123422783 | 3.7631e-06 | deg |
node | 53.14886425777073 | 7.8992e-05 | deg |
peri | 228.3471818007522 | 8.031e-05 | deg |
M | 42.84241564054152 | 1.35e-05 | deg |
tp | 2459020.893157865222 (2020-Jun-20.39315787) | 5.6875e-05 | TDB |
period | 1509.216093485962 4.13 | 1.0734e-05 2.939e-08 | d yr |
n | .2385344295981353 | 1.6965e-09 | deg/d |
Q | 2.996165441908478 | 1.4206e-08 | au |
|
| | Orbit Determination Parameters
Additional Information
|